Time,TemperatureF,DewpointF,PressureIn,WindDirection,WindDirectionDegrees,WindSpeedMPH,WindSpeedGustMPH,Humidity,HourlyPrecipIn,Conditions,Clouds,dailyrainin,SoftwareType,DateUTC
2013-02-21 00:00:00,27.3,2.7,29.94,WNW,287,13.2,20.4,34,0.00,,---,0.00,VWS V14.01,2013-02-21 05:00:00,
2013-02-21 00:05:00,27.3,2.7,29.94,SW,234,14.4,18.2,34,0.00,,---,0.00,VWS V14.01,2013-02-21 05:05:00,
2013-02-21 00:10:00,27.1,2.5,29.94,WSW,244,16.3,25.1,34,0.00,,---,0.00,VWS V14.01,2013-02-21 05:10:00,
2013-02-21 00:15:00,27.1,2.5,29.94,NW,315,7.8,21.6,34,0.00,,---,0.00,VWS V14.01,2013-02-21 05:15:00,
2013-02-21 00:20:00,27.1,3.7,29.94,West,260,18.5,18.5,36,0.00,,---,0.00,VWS V14.01,2013-02-21 05:20:00,
2013-02-21 00:25:00,27.1,3.7,29.94,North,357,12.5,18.5,36,0.00,,---,0.00,VWS V14.01,2013-02-21 05:25:00,
2013-02-21 00:30:00,27.1,3.7,29.94,SW,230,5.6,12.5,36,0.00,,---,0.00,VWS V14.01,2013-02-21 05:30:00,
2013-02-21 00:35:00,27.1,3.7,29.94,West,281,16.3,16.3,36,0.00,,---,0.00,VWS V14.01,2013-02-21 05:35:00,
2013-02-21 00:40:00,27.0,3.6,29.94,NNW,327,4.4,17.5,36,0.00,,---,0.00,VWS V14.01,2013-02-21 05:40:00,
2013-02-21 00:45:00,27.0,3.6,29.94,North,11,9.7,13.8,36,0.00,,---,0.00,VWS V14.01,2013-02-21 05:45:00,
2013-02-21 00:50:00,27.0,3.6,29.94,South,169,4.4,15.0,36,0.00,,---,0.00,VWS V14.01,2013-02-21 05:50:00,
2013-02-21 00:55:00,27.0,3.6,29.94,NW,304,11.6,13.8,36,0.00,,---,0.00,VWS V14.01,2013-02-21 05:55:00,
2013-02-21 01:05:00,26.8,3.4,29.94,NNW,344,9.1,15.0,36,0.00,,---,0.00,VWS V14.01,2013-02-21 06:05:00,
2013-02-21 01:10:00,26.8,3.4,29.94,SSW,212,7.2,12.5,36,0.00,,---,0.00,VWS V14.01,2013-02-21 06:10:00,
2013-02-21 01:15:00,26.8,3.4,29.94,WNW,303,7.2,15.0,36,0.00,,---,0.00,VWS V14.01,2013-02-21 06:15:00,
2013-02-21 01:20:00,26.8,3.4,29.94,West,266,7.8,16.3,36,0.00,,---,0.00,VWS V14.01,2013-02-21 06:20:00,
2013-02-21 01:25:00,26.8,3.4,29.94,WSW,258,0.0,12.2,36,0.00,,---,0.00,VWS V14.01,2013-02-21 06:25:00,
2013-02-21 01:30:00,26.8,3.4,29.94,West,265,6.6,13.8,36,0.00,,---,0.00,VWS V14.01,2013-02-21 06:30:00,
2013-02-21 01:35:00,26.8,3.4,29.94,WNW,288,11.6,14.4,36,0.00,,---,0.00,VWS V14.01,2013-02-21 06:35:00,
2013-02-21 01:40:00,26.8,3.4,29.94,WNW,301,3.8,12.2,36,0.00,,---,0.00,VWS V14.01,2013-02-21 06:40:00,
2013-02-21 01:45:00,26.8,3.4,29.94,NW,304,10.3,15.7,36,0.00,,---,0.00,VWS V14.01,2013-02-21 06:45:00,
2013-02-21 01:50:00,26.8,3.4,29.94,WNW,288,12.2,13.2,36,0.00,,---,0.00,VWS V14.01,2013-02-21 06:50:00,
2013-02-21 01:55:00,26.8,3.4,29.94,North,2,6.3,12.5,36,0.00,,---,0.00,VWS V14.01,2013-02-21 06:55:00,
2013-02-21 02:00:00,26.8,3.4,29.94,WSW,248,7.8,15.7,36,0.00,,---,0.00,VWS V14.01,2013-02-21 07:00:00,
2013-02-21 02:05:00,26.8,3.4,29.94,West,280,6.3,14.4,36,0.00,,---,0.00,VWS V14.01,2013-02-21 07:05:00,
2013-02-21 02:10:00,26.6,3.8,29.94,WNW,284,9.1,15.7,37,0.00,,---,0.00,VWS V14.01,2013-02-21 07:10:00,
2013-02-21 02:15:00,26.6,3.8,29.94,WNW,302,16.3,18.5,37,0.00,,---,0.00,VWS V14.01,2013-02-21 07:15:00,
2013-02-21 02:20:00,26.6,3.8,29.94,WNW,287,8.5,16.9,37,0.00,,---,0.00,VWS V14.01,2013-02-21 07:20:00,
2013-02-21 02:25:00,26.6,5.0,29.94,West,268,9.1,19.7,39,0.00,,---,0.00,VWS V14.01,2013-02-21 07:25:00,
2013-02-21 02:30:00,26.6,5.0,29.94,West,267,13.2,22.2,39,0.00,,---,0.00,VWS V14.01,2013-02-21 07:30:00,
2013-02-21 02:35:00,26.4,4.8,29.94,West,278,9.7,16.3,39,0.00,,---,0.00,VWS V14.01,2013-02-21 07:35:00,
2013-02-21 02:40:00,26.4,4.8,29.94,SW,226,13.8,16.9,39,0.00,,---,0.00,VWS V14.01,2013-02-21 07:40:00,
2013-02-21 02:45:00,26.6,5.0,29.94,WSW,254,7.2,13.8,39,0.00,,---,0.00,VWS V14.01,2013-02-21 07:45:00,
2013-02-21 02:50:00,26.6,5.0,29.94,West,260,9.7,12.2,39,0.00,,---,0.00,VWS V14.01,2013-02-21 07:50:00,
2013-02-21 02:55:00,26.6,5.0,29.94,SW,222,9.1,13.2,39,0.00,,---,0.00,VWS V14.01,2013-02-21 07:55:00,
2013-02-21 03:00:00,26.4,4.8,29.94,WSW,249,0.0,16.9,39,0.00,,---,0.00,VWS V14.01,2013-02-21 08:00:00,
2013-02-21 03:05:00,26.4,4.8,29.94,WNW,290,9.1,13.2,39,0.00,,---,0.00,VWS V14.01,2013-02-21 08:05:00,
2013-02-21 03:10:00,26.4,4.8,29.91,WNW,297,8.5,12.5,39,0.00,,---,0.00,VWS V14.01,2013-02-21 08:10:00,
2013-02-21 03:15:00,26.4,4.8,29.91,West,265,6.3,16.9,39,0.00,,---,0.00,VWS V14.01,2013-02-21 08:15:00,
2013-02-21 03:20:00,26.4,4.8,29.91,SSW,211,9.1,12.5,39,0.00,,---,0.00,VWS V14.01,2013-02-21 08:20:00,
2013-02-21 03:25:00,26.6,5.6,29.94,WSW,247,8.5,16.3,40,0.00,,---,0.00,VWS V14.01,2013-02-21 08:25:00,
2013-02-21 03:30:00,26.6,5.6,29.94,West,278,12.2,19.7,40,0.00,,---,0.00,VWS V14.01,2013-02-21 08:30:00,
2013-02-21 03:35:00,26.8,5.2,29.94,West,263,9.1,12.2,39,0.00,,---,0.00,VWS V14.01,2013-02-21 08:35:00,
2013-02-21 03:40:00,26.8,5.2,29.94,WSW,245,11.6,12.2,39,0.00,,---,0.00,VWS V14.01,2013-02-21 08:40:00,
2013-02-21 03:45:00,26.8,5.2,29.94,West,261,5.0,15.7,39,0.00,,---,0.00,VWS V14.01,2013-02-21 08:45:00,
2013-02-21 03:50:00,27.0,5.3,29.94,WNW,291,12.5,15.0,39,0.00,,---,0.00,VWS V14.01,2013-02-21 08:50:00,
2013-02-21 03:55:00,27.0,5.3,29.94,NW,321,4.4,13.8,39,0.00,,---,0.00,VWS V14.01,2013-02-21 08:55:00,
2013-02-21 04:00:00,27.0,5.3,29.94,West,279,7.2,12.2,39,0.00,,---,0.00,VWS V14.01,2013-02-21 09:00:00,
2013-02-21 04:05:00,27.0,5.3,29.94,WNW,284,12.2,16.9,39,0.00,,---,0.00,VWS V14.01,2013-02-21 09:05:00,
2013-02-21 04:10:00,27.0,5.3,29.94,West,281,11.6,15.7,39,0.00,,---,0.00,VWS V14.01,2013-02-21 09:10:00,
2013-02-21 04:15:00,27.0,5.3,29.94,WSW,241,6.3,17.5,39,0.00,,---,0.00,VWS V14.01,2013-02-21 09:15:00,
2013-02-21 04:20:00,27.0,5.3,29.94,WSW,254,5.6,11.6,39,0.00,,---,0.00,VWS V14.01,2013-02-21 09:20:00,
2013-02-21 04:25:00,27.1,5.5,29.94,West,279,12.2,19.1,39,0.00,,---,0.00,VWS V14.01,2013-02-21 09:25:00,
2013-02-21 04:30:00,27.1,5.5,29.94,WNW,298,11.0,19.7,39,0.00,,---,0.00,VWS V14.01,2013-02-21 09:30:00,
2013-02-21 04:35:00,27.1,5.5,29.94,WNW,301,11.6,17.5,39,0.00,,---,0.00,VWS V14.01,2013-02-21 09:35:00,
2013-02-21 04:40:00,27.0,5.3,29.94,West,278,12.5,18.2,39,0.00,,---,0.00,VWS V14.01,2013-02-21 09:40:00,
2013-02-21 04:45:00,27.0,5.3,29.94,NW,325,15.7,15.7,39,0.00,,---,0.00,VWS V14.01,2013-02-21 09:45:00,
2013-02-21 04:50:00,27.0,5.3,29.94,NW,311,7.8,16.3,39,0.00,,---,0.00,VWS V14.01,2013-02-21 09:50:00,
2013-02-21 04:55:00,27.0,5.9,29.94,WNW,299,13.8,15.0,40,0.00,,---,0.00,VWS V14.01,2013-02-21 09:55:00,
2013-02-21 05:05:00,27.1,6.0,29.94,WNW,288,9.7,18.5,40,0.00,,---,0.00,VWS V14.01,2013-02-21 10:05:00,
2013-02-21 05:10:00,27.3,6.2,29.94,WSW,238,5.6,16.3,40,0.00,,---,0.00,VWS V14.01,2013-02-21 10:10:00,
2013-02-21 05:15:00,27.1,6.0,29.94,West,279,13.2,18.5,40,0.00,,---,0.00,VWS V14.01,2013-02-21 10:15:00,
2013-02-21 05:20:00,27.1,6.0,29.94,NW,305,17.5,17.5,40,0.00,,---,0.00,VWS V14.01,2013-02-21 10:20:00,
2013-02-21 05:25:00,27.1,6.0,29.94,NW,312,9.7,18.5,40,0.00,,---,0.00,VWS V14.01,2013-02-21 10:25:00,
2013-02-21 05:30:00,27.1,6.0,29.94,West,265,6.6,19.7,40,0.00,,---,0.00,VWS V14.01,2013-02-21 10:30:00,
2013-02-21 05:35:00,27.1,6.0,29.94,WNW,302,8.5,19.1,40,0.00,,---,0.00,VWS V14.01,2013-02-21 10:35:00,
2013-02-21 05:40:00,27.1,6.0,29.94,West,267,12.5,19.1,40,0.00,,---,0.00,VWS V14.01,2013-02-21 10:40:00,
2013-02-21 05:45:00,27.1,6.0,29.94,NW,315,12.2,17.5,40,0.00,,---,0.00,VWS V14.01,2013-02-21 10:45:00,
2013-02-21 05:50:00,27.3,6.2,29.94,WNW,285,8.5,15.7,40,0.00,,---,0.00,VWS V14.01,2013-02-21 10:50:00,
2013-02-21 05:55:00,27.3,6.2,29.94,NNW,331,17.5,19.7,40,0.00,,---,0.00,VWS V14.01,2013-02-21 10:55:00,
2013-02-21 06:05:00,27.3,6.2,29.94,WNW,293,18.5,19.1,40,0.00,,---,0.00,VWS V14.01,2013-02-21 11:05:00,
2013-02-21 06:10:00,27.1,6.0,29.94,NNW,329,13.2,20.4,40,0.00,,---,0.00,VWS V14.01,2013-02-21 11:10:00,
2013-02-21 06:15:00,27.1,6.0,29.94,NW,326,13.2,19.1,40,0.00,,---,0.00,VWS V14.01,2013-02-21 11:15:00,
2013-02-21 06:20:00,27.1,6.0,29.94,NW,314,9.7,13.2,40,0.00,,---,0.00,VWS V14.01,2013-02-21 11:20:00,
2013-02-21 06:25:00,27.1,6.0,29.94,WNW,296,17.5,20.4,40,0.00,,---,0.00,VWS V14.01,2013-02-21 11:25:00,
2013-02-21 06:30:00,27.0,5.3,29.94,NW,305,15.0,19.1,39,0.00,,---,0.00,VWS V14.01,2013-02-21 11:30:00,
2013-02-21 06:35:00,27.1,6.0,29.94,West,274,16.9,18.5,40,0.00,,---,0.00,VWS V14.01,2013-02-21 11:35:00,
2013-02-21 06:40:00,27.1,5.5,29.94,WNW,292,7.8,24.1,39,0.00,,---,0.00,VWS V14.01,2013-02-21 11:40:00,
2013-02-21 06:45:00,27.1,5.5,29.97,NW,318,9.1,14.4,39,0.00,,---,0.00,VWS V14.01,2013-02-21 11:45:00,
2013-02-21 06:50:00,27.1,5.5,29.97,West,262,13.2,17.5,39,0.00,,---,0.00,VWS V14.01,2013-02-21 11:50:00,
2013-02-21 06:55:00,27.1,5.5,29.97,WSW,254,8.5,13.8,39,0.00,,---,0.00,VWS V14.01,2013-02-21 11:55:00,
2013-02-21 07:00:00,27.1,5.5,29.97,NNW,346,12.2,18.5,39,0.00,,---,0.00,VWS V14.01,2013-02-21 12:00:00,
2013-02-21 07:05:00,27.1,5.5,29.97,West,275,11.0,17.5,39,0.00,,---,0.00,VWS V14.01,2013-02-21 12:05:00,
2013-02-21 07:10:00,27.1,5.5,29.97,WNW,294,16.3,18.5,39,0.00,,---,0.00,VWS V14.01,2013-02-21 12:10:00,
2013-02-21 07:15:00,27.1,5.5,29.97,NW,315,15.0,16.9,39,0.00,,---,0.00,VWS V14.01,2013-02-21 12:15:00,
2013-02-21 07:20:00,27.0,5.3,29.97,West,273,0.0,16.3,39,0.00,,---,0.00,VWS V14.01,2013-02-21 12:20:00,
2013-02-21 07:25:00,27.1,5.5,29.97,NW,322,10.3,18.2,39,0.00,,---,0.00,VWS V14.01,2013-02-21 12:25:00,
2013-02-21 07:30:00,27.1,5.5,29.97,NNW,336,6.6,19.1,39,0.00,,---,0.00,VWS V14.01,2013-02-21 12:30:00,
2013-02-21 07:35:00,27.1,5.5,29.97,NW,305,6.6,20.4,39,0.00,,---,0.00,VWS V14.01,2013-02-21 12:35:00,
2013-02-21 07:40:00,27.3,5.6,29.97,NW,316,16.3,17.5,39,0.00,,---,0.00,VWS V14.01,2013-02-21 12:40:00,
2013-02-21 07:45:00,27.3,5.6,29.97,WNW,283,13.2,19.1,39,0.00,,---,0.00,VWS V14.01,2013-02-21 12:45:00,
2013-02-21 07:50:00,27.3,5.6,29.97,WNW,282,13.2,20.4,39,0.00,,---,0.00,VWS V14.01,2013-02-21 12:50:00,
2013-02-21 07:55:00,27.5,5.8,29.97,WNW,288,6.6,17.5,39,0.00,,---,0.00,VWS V14.01,2013-02-21 12:55:00,
2013-02-21 08:00:00,27.9,6.1,29.97,NW,304,13.8,22.2,39,0.00,,---,0.00,VWS V14.01,2013-02-21 13:00:00,
2013-02-21 08:05:00,27.9,6.1,29.97,West,274,21.6,21.6,39,0.00,,---,0.00,VWS V14.01,2013-02-21 13:05:00,
2013-02-21 08:10:00,27.9,6.1,29.97,WNW,284,13.2,22.2,39,0.00,,---,0.00,VWS V14.01,2013-02-21 13:10:00,
2013-02-21 08:15:00,28.0,6.3,29.97,WNW,296,16.3,17.5,39,0.00,,---,0.00,VWS V14.01,2013-02-21 13:15:00,
2013-02-21 08:20:00,28.2,6.4,29.97,WNW,298,17.5,22.2,39,0.00,,---,0.00,VWS V14.01,2013-02-21 13:20:00,
2013-02-21 08:25:00,28.2,6.4,29.97,WSW,244,7.2,18.2,39,0.00,,---,0.00,VWS V14.01,2013-02-21 13:25:00,
2013-02-21 08:30:00,28.4,6.6,29.97,WNW,294,18.2,19.7,39,0.00,,---,0.00,VWS V14.01,2013-02-21 13:30:00,
2013-02-21 08:35:00,28.6,6.8,29.97,NW,307,19.1,19.1,39,0.00,,---,0.00,VWS V14.01,2013-02-21 13:35:00,
2013-02-21 08:40:00,28.6,6.2,29.97,NW,318,9.7,19.1,38,0.00,,---,0.00,VWS V14.01,2013-02-21 13:40:00,
2013-02-21 08:45:00,28.8,6.4,29.97,NNW,330,12.5,28.2,38,0.00,,---,0.00,VWS V14.01,2013-02-21 13:45:00,
2013-02-21 08:50:00,28.9,6.5,29.97,NW,311,15.0,22.2,38,0.00,,---,0.00,VWS V14.01,2013-02-21 13:50:00,
2013-02-21 08:55:00,29.1,6.7,29.97,WNW,295,14.4,24.1,38,0.00,,---,0.00,VWS V14.01,2013-02-21 13:55:00,
2013-02-21 09:00:00,29.3,6.9,29.97,North,350,18.2,27.6,38,0.00,,---,0.00,VWS V14.01,2013-02-21 14:00:00,
2013-02-21 09:05:00,29.5,7.0,29.97,WNW,284,26.9,26.9,38,0.00,,---,0.00,VWS V14.01,2013-02-21 14:05:00,
2013-02-21 09:10:00,29.5,5.8,29.97,WNW,297,21.6,26.9,36,0.00,,---,0.00,VWS V14.01,2013-02-21 14:10:00,
2013-02-21 09:15:00,29.7,7.2,29.97,West,279,15.0,22.9,38,0.00,,---,0.00,VWS V14.01,2013-02-21 14:15:00,
2013-02-21 09:20:00,29.8,7.3,29.97,WSW,242,15.0,25.7,38,0.00,,---,0.00,VWS V14.01,2013-02-21 14:20:00,
2013-02-21 09:25:00,30.0,6.3,30.00,NNW,345,11.6,25.1,36,0.00,,---,0.00,VWS V14.01,2013-02-21 14:25:00,
2013-02-21 09:30:00,30.4,6.6,30.00,West,279,12.2,24.7,36,0.00,,---,0.00,VWS V14.01,2013-02-21 14:30:00,
2013-02-21 09:35:00,30.7,7.0,30.00,West,280,13.8,22.2,36,0.00,,---,0.00,VWS V14.01,2013-02-21 14:35:00,
2013-02-21 09:40:00,31.1,7.3,30.00,West,265,18.2,18.2,36,0.00,,---,0.00,VWS V14.01,2013-02-21 14:40:00,
2013-02-21 09:45:00,30.9,7.1,30.00,North,3,18.5,23.5,36,0.00,,---,0.00,VWS V14.01,2013-02-21 14:45:00,
2013-02-21 09:50:00,31.1,7.3,30.00,West,281,13.2,23.5,36,0.00,,---,0.00,VWS V14.01,2013-02-21 14:50:00,
2013-02-21 09:55:00,30.9,7.1,30.00,NNE,28,18.2,26.3,36,0.00,,---,0.00,VWS V14.01,2013-02-21 14:55:00,
2013-02-21 10:00:00,30.7,7.0,30.00,NNW,329,9.1,32.3,36,0.00,,---,0.00,VWS V14.01,2013-02-21 15:00:00,
2013-02-21 10:05:00,30.7,7.0,30.00,NNW,335,11.6,18.5,36,0.00,,---,0.00,VWS V14.01,2013-02-21 15:05:00,
2013-02-21 10:10:00,30.9,7.1,30.00,WNW,298,13.8,24.1,36,0.00,,---,0.00,VWS V14.01,2013-02-21 15:10:00,
2013-02-21 10:15:00,30.9,7.1,30.00,NNW,340,7.8,24.7,36,0.00,,---,0.00,VWS V14.01,2013-02-21 15:15:00,
2013-02-21 10:20:00,30.9,7.1,30.00,SSW,212,13.2,21.6,36,0.00,,---,0.00,VWS V14.01,2013-02-21 15:20:00,
2013-02-21 10:25:00,30.9,7.1,30.00,North,11,12.2,15.0,36,0.00,,---,0.00,VWS V14.01,2013-02-21 15:25:00,
2013-02-21 10:30:00,30.9,7.1,30.00,North,350,16.3,18.5,36,0.00,,---,0.00,VWS V14.01,2013-02-21 15:30:00,
2013-02-21 10:35:00,30.7,7.0,30.00,WSW,237,12.2,22.2,36,0.00,,---,0.00,VWS V14.01,2013-02-21 15:35:00,
2013-02-21 10:40:00,30.7,7.0,30.00,NNW,339,16.9,25.1,36,0.00,,---,0.00,VWS V14.01,2013-02-21 15:40:00,
2013-02-21 10:45:00,30.7,7.0,30.00,WNW,303,21.6,22.9,36,0.00,,---,0.00,VWS V14.01,2013-02-21 15:45:00,
2013-02-21 10:50:00,30.9,7.1,30.00,West,279,12.5,26.9,36,0.00,,---,0.00,VWS V14.01,2013-02-21 15:50:00,
2013-02-21 10:55:00,31.1,7.3,30.00,NW,318,7.2,24.7,36,0.00,,---,0.00,VWS V14.01,2013-02-21 15:55:00,
2013-02-21 11:00:00,31.1,7.3,30.00,West,259,17.5,19.1,36,0.00,,---,0.00,VWS V14.01,2013-02-21 16:00:00,
2013-02-21 11:10:00,31.3,7.4,30.00,NNW,332,23.5,23.5,36,0.00,,---,0.00,VWS V14.01,2013-02-21 16:10:00,
2013-02-21 11:15:00,31.5,7.6,30.00,NNW,332,25.1,26.3,36,0.00,,---,0.00,VWS V14.01,2013-02-21 16:15:00,
2013-02-21 11:20:00,31.6,7.8,30.00,WNW,287,13.8,25.1,36,0.00,,---,0.00,VWS V14.01,2013-02-21 16:20:00,
2013-02-21 11:25:00,31.8,7.9,30.00,WNW,293,20.4,30.7,36,0.00,,---,0.00,VWS V14.01,2013-02-21 16:25:00,
2013-02-21 11:30:00,32.0,8.1,30.00,West,280,15.7,33.5,36,0.00,,---,0.00,VWS V14.01,2013-02-21 16:30:00,
2013-02-21 11:35:00,32.4,8.4,30.00,NNW,327,22.2,26.9,36,0.00,,---,0.00,VWS V14.01,2013-02-21 16:35:00,
2013-02-21 11:40:00,32.9,8.9,30.00,NNW,329,24.7,26.9,36,0.00,,---,0.00,VWS V14.01,2013-02-21 16:40:00,
2013-02-21 11:45:00,33.1,9.1,30.00,NNW,341,17.5,24.7,36,0.00,,---,0.00,VWS V14.01,2013-02-21 16:45:00,
2013-02-21 11:50:00,33.3,9.2,30.00,NNW,348,17.5,23.5,36,0.00,,---,0.00,VWS V14.01,2013-02-21 16:50:00,
2013-02-21 11:55:00,33.6,9.5,30.00,NNW,334,16.9,27.6,36,0.00,,---,0.00,VWS V14.01,2013-02-21 16:55:00,
2013-02-21 12:00:00,33.1,7.1,30.00,NNW,346,17.5,25.1,33,0.00,,---,0.00,VWS V14.01,2013-02-21 17:00:00,
2013-02-21 12:05:00,33.3,9.2,30.00,NNW,331,12.5,19.7,36,0.00,,---,0.00,VWS V14.01,2013-02-21 17:05:00,
2013-02-21 12:10:00,33.1,9.1,29.97,WNW,297,11.0,22.9,36,0.00,,---,0.00,VWS V14.01,2013-02-21 17:10:00,
2013-02-21 12:15:00,33.3,9.2,29.97,WSW,250,16.9,24.1,36,0.00,,---,0.00,VWS V14.01,2013-02-21 17:15:00,
2013-02-21 12:20:00,33.3,9.2,29.97,West,270,13.2,26.3,36,0.00,,---,0.00,VWS V14.01,2013-02-21 17:20:00,
2013-02-21 12:25:00,33.4,9.4,29.97,WNW,284,20.4,21.0,36,0.00,,---,0.00,VWS V14.01,2013-02-21 17:25:00,
2013-02-21 12:30:00,33.6,9.5,29.97,NNW,336,16.3,24.7,36,0.00,,---,0.00,VWS V14.01,2013-02-21 17:30:00,
2013-02-21 12:35:00,34.0,9.2,29.97,WSW,248,13.2,23.5,35,0.00,,---,0.00,VWS V14.01,2013-02-21 17:35:00,
2013-02-21 12:40:00,34.5,9.7,29.97,NW,316,16.9,21.6,35,0.00,,---,0.00,VWS V14.01,2013-02-21 17:40:00,
2013-02-21 12:45:00,34.5,8.4,29.97,NNW,338,11.6,24.7,33,0.00,,---,0.00,VWS V14.01,2013-02-21 17:45:00,
2013-02-21 12:50:00,34.7,8.6,29.97,NNW,341,18.2,23.5,33,0.00,,---,0.00,VWS V14.01,2013-02-21 17:50:00,
2013-02-21 12:55:00,34.9,8.7,29.97,WNW,297,11.0,27.6,33,0.00,,---,0.00,VWS V14.01,2013-02-21 17:55:00,
2013-02-21 13:00:00,34.9,8.7,29.97,WSW,252,13.2,26.9,33,0.00,,---,0.00,VWS V14.01,2013-02-21 18:00:00,
2013-02-21 13:05:00,35.2,9.0,29.97,WNW,284,9.1,17.5,33,0.00,,---,0.00,VWS V14.01,2013-02-21 18:05:00,
2013-02-21 13:10:00,35.8,8.8,29.97,NW,318,19.1,19.1,32,0.00,,---,0.00,VWS V14.01,2013-02-21 18:10:00,
2013-02-21 13:15:00,36.0,9.0,29.97,WNW,299,16.9,23.5,32,0.00,,---,0.00,VWS V14.01,2013-02-21 18:15:00,
2013-02-21 13:20:00,36.1,9.1,29.97,WSW,247,12.5,19.1,32,0.00,,---,0.00,VWS V14.01,2013-02-21 18:20:00,
2013-02-21 13:25:00,36.3,9.3,29.97,NW,326,17.5,28.8,32,0.00,,---,0.00,VWS V14.01,2013-02-21 18:25:00,
2013-02-21 13:35:00,37.0,9.9,29.97,NNW,328,15.7,24.1,32,0.00,,---,0.00,VWS V14.01,2013-02-21 18:35:00,
2013-02-21 13:40:00,37.0,9.9,29.97,WNW,301,22.2,25.7,32,0.00,,---,0.00,VWS V14.01,2013-02-21 18:40:00,
2013-02-21 13:45:00,36.5,9.5,29.97,WNW,286,17.5,35.4,32,0.00,,---,0.00,VWS V14.01,2013-02-21 18:45:00,
2013-02-21 13:50:00,36.3,9.3,29.97,WNW,287,20.4,25.1,32,0.00,,---,0.00,VWS V14.01,2013-02-21 18:50:00,
2013-02-21 13:55:00,36.5,9.5,29.97,WNW,303,15.0,26.3,32,0.00,,---,0.00,VWS V14.01,2013-02-21 18:55:00,
2013-02-21 14:00:00,36.7,9.6,29.97,SW,236,12.2,23.5,32,0.00,,---,0.00,VWS V14.01,2013-02-21 19:00:00,
2013-02-21 14:05:00,36.7,9.6,29.97,NW,307,22.9,22.9,32,0.00,,---,0.00,VWS V14.01,2013-02-21 19:05:00,
2013-02-21 14:10:00,36.5,9.5,29.97,SSW,211,28.8,28.8,32,0.00,,---,0.00,VWS V14.01,2013-02-21 19:10:00,
2013-02-21 14:15:00,36.5,9.5,29.97,WNW,283,15.7,28.8,32,0.00,,---,0.00,VWS V14.01,2013-02-21 19:15:00,
2013-02-21 14:20:00,36.3,9.3,29.97,West,273,7.2,25.7,32,0.00,,---,0.00,VWS V14.01,2013-02-21 19:20:00,
2013-02-21 14:25:00,36.3,9.3,29.97,NW,305,16.9,24.1,32,0.00,,---,0.00,VWS V14.01,2013-02-21 19:25:00,
2013-02-21 14:30:00,36.3,9.3,29.97,WNW,293,18.5,24.1,32,0.00,,---,0.00,VWS V14.01,2013-02-21 19:30:00,
2013-02-21 14:35:00,36.5,9.5,29.97,NNW,336,16.9,24.1,32,0.00,,---,0.00,VWS V14.01,2013-02-21 19:35:00,
2013-02-21 14:40:00,36.3,9.3,29.97,WNW,301,22.9,25.7,32,0.00,,---,0.00,VWS V14.01,2013-02-21 19:40:00,
2013-02-21 14:45:00,36.3,9.3,29.97,NW,321,11.6,30.7,32,0.00,,---,0.00,VWS V14.01,2013-02-21 19:45:00,
2013-02-21 14:50:00,36.5,9.5,29.97,NNW,340,32.9,32.9,32,0.00,,---,0.00,VWS V14.01,2013-02-21 19:50:00,
2013-02-21 14:55:00,36.1,9.1,29.97,North,4,16.9,32.9,32,0.00,,---,0.00,VWS V14.01,2013-02-21 19:55:00,
2013-02-21 15:00:00,36.3,9.3,29.97,NNW,342,22.2,23.5,32,0.00,,---,0.00,VWS V14.01,2013-02-21 20:00:00,
2013-02-21 15:05:00,36.5,9.5,29.97,WNW,303,16.3,28.8,32,0.00,,---,0.00,VWS V14.01,2013-02-21 20:05:00,
2013-02-21 15:10:00,36.5,9.5,29.97,NW,313,22.9,25.1,32,0.00,,---,0.00,VWS V14.01,2013-02-21 20:10:00,
2013-02-21 15:15:00,36.3,9.3,29.97,WNW,290,19.7,25.1,32,0.00,,---,0.00,VWS V14.01,2013-02-21 20:15:00,
2013-02-21 15:20:00,36.3,9.3,29.97,NNW,332,19.1,22.9,32,0.00,,---,0.00,VWS V14.01,2013-02-21 20:20:00,
2013-02-21 15:25:00,36.7,9.6,29.97,NE,39,13.8,21.0,32,0.00,,---,0.00,VWS V14.01,2013-02-21 20:25:00,
2013-02-21 15:30:00,36.5,9.5,29.97,North,2,11.0,26.9,32,0.00,,---,0.00,VWS V14.01,2013-02-21 20:30:00,
2013-02-21 15:35:00,36.3,9.3,29.97,WNW,287,21.6,24.7,32,0.00,,---,0.00,VWS V14.01,2013-02-21 20:35:00,
2013-02-21 15:40:00,36.3,9.3,29.97,WNW,301,20.4,24.7,32,0.00,,---,0.00,VWS V14.01,2013-02-21 20:40:00,
2013-02-21 15:45:00,36.3,9.3,29.97,NW,306,14.4,23.5,32,0.00,,---,0.00,VWS V14.01,2013-02-21 20:45:00,
2013-02-21 15:50:00,36.7,9.6,29.97,WNW,299,13.2,21.0,32,0.00,,---,0.00,VWS V14.01,2013-02-21 20:50:00,
2013-02-21 15:55:00,36.3,9.3,29.97,WNW,297,12.2,25.1,32,0.00,,---,0.00,VWS V14.01,2013-02-21 20:55:00,
2013-02-21 16:00:00,36.3,9.3,29.97,NW,316,17.5,21.6,32,0.00,,---,0.00,VWS V14.01,2013-02-21 21:00:00,
2013-02-21 16:05:00,36.3,9.3,29.97,NNW,330,18.2,25.1,32,0.00,,---,0.00,VWS V14.01,2013-02-21 21:05:00,
2013-02-21 16:10:00,36.3,9.3,29.97,NW,324,13.2,21.0,32,0.00,,---,0.00,VWS V14.01,2013-02-21 21:10:00,
2013-02-21 16:15:00,36.3,9.3,30.00,WNW,298,10.3,19.7,32,0.00,,---,0.00,VWS V14.01,2013-02-21 21:15:00,
2013-02-21 16:20:00,36.3,9.3,30.00,NNW,346,16.9,16.9,32,0.00,,---,0.00,VWS V14.01,2013-02-21 21:20:00,
2013-02-21 16:25:00,36.3,9.3,30.00,NNW,332,16.9,21.0,32,0.00,,---,0.00,VWS V14.01,2013-02-21 21:25:00,
2013-02-21 16:30:00,36.1,9.1,30.00,West,266,15.0,30.7,32,0.00,,---,0.00,VWS V14.01,2013-02-21 21:30:00,
2013-02-21 16:35:00,36.1,9.1,30.00,WNW,295,11.0,24.7,32,0.00,,---,0.00,VWS V14.01,2013-02-21 21:35:00,
2013-02-21 16:40:00,36.1,9.1,30.00,North,2,15.7,27.6,32,0.00,,---,0.00,VWS V14.01,2013-02-21 21:40:00,
2013-02-21 16:45:00,36.1,9.1,30.00,NW,310,12.2,18.5,32,0.00,,---,0.00,VWS V14.01,2013-02-21 21:45:00,
2013-02-21 16:50:00,36.0,9.0,30.00,WNW,297,12.5,21.0,32,0.00,,---,0.00,VWS V14.01,2013-02-21 21:50:00,
2013-02-21 16:55:00,36.0,9.0,30.00,North,357,17.5,23.5,32,0.00,,---,0.00,VWS V14.01,2013-02-21 21:55:00,
2013-02-21 17:00:00,36.0,9.0,30.00,WSW,251,7.8,19.7,32,0.00,,---,0.00,VWS V14.01,2013-02-21 22:00:00,
2013-02-21 17:05:00,36.0,9.0,30.00,North,350,25.7,25.7,32,0.00,,---,0.00,VWS V14.01,2013-02-21 22:05:00,
2013-02-21 17:10:00,35.8,8.8,30.00,NW,315,18.2,25.7,32,0.00,,---,0.00,VWS V14.01,2013-02-21 22:10:00,
2013-02-21 17:15:00,35.6,8.7,30.00,NW,304,16.9,25.7,32,0.00,,---,0.00,VWS V14.01,2013-02-21 22:15:00,
2013-02-21 17:20:00,35.6,8.7,30.00,NW,324,16.9,16.9,32,0.00,,---,0.00,VWS V14.01,2013-02-21 22:20:00,
2013-02-21 17:25:00,35.4,9.2,30.00,WNW,291,11.6,21.0,33,0.00,,---,0.00,VWS V14.01,2013-02-21 22:25:00,
2013-02-21 17:30:00,35.4,9.2,30.00,North,350,15.0,17.5,33,0.00,,---,0.00,VWS V14.01,2013-02-21 22:30:00,
2013-02-21 17:35:00,35.4,9.2,30.00,NW,307,11.6,17.5,33,0.00,,---,0.00,VWS V14.01,2013-02-21 22:35:00,
2013-02-21 17:40:00,35.2,9.0,30.00,WNW,289,15.0,23.5,33,0.00,,---,0.00,VWS V14.01,2013-02-21 22:40:00,
2013-02-21 17:45:00,35.2,9.0,30.00,WNW,292,9.7,16.3,33,0.00,,---,0.00,VWS V14.01,2013-02-21 22:45:00,
2013-02-21 17:50:00,35.2,9.0,30.00,NW,320,11.6,16.9,33,0.00,,---,0.00,VWS V14.01,2013-02-21 22:50:00,
2013-02-21 17:55:00,35.2,9.0,30.00,NW,324,15.0,16.3,33,0.00,,---,0.00,VWS V14.01,2013-02-21 22:55:00,
2013-02-21 18:00:00,35.1,8.9,30.00,WNW,291,10.3,15.0,33,0.00,,---,0.00,VWS V14.01,2013-02-21 23:00:00,
2013-02-21 18:05:00,35.1,10.2,30.00,NW,316,13.2,16.3,35,0.00,,---,0.00,VWS V14.01,2013-02-21 23:05:00,
2013-02-21 18:10:00,35.1,8.9,30.03,West,276,11.6,18.5,33,0.00,,---,0.00,VWS V14.01,2013-02-21 23:10:00,
2013-02-21 18:15:00,35.1,10.2,30.03,NW,308,10.3,15.0,35,0.00,,---,0.00,VWS V14.01,2013-02-21 23:15:00,
2013-02-21 18:20:00,34.9,10.0,30.03,SW,217,9.1,16.9,35,0.00,,---,0.00,VWS V14.01,2013-02-21 23:20:00,
2013-02-21 18:25:00,34.9,10.0,30.03,NNW,332,9.1,15.0,35,0.00,,---,0.00,VWS V14.01,2013-02-21 23:25:00,
2013-02-21 18:30:00,34.9,10.0,30.03,NW,317,15.7,17.5,35,0.00,,---,0.00,VWS V14.01,2013-02-21 23:30:00,
2013-02-21 18:35:00,34.9,10.0,30.03,NW,314,6.3,16.9,35,0.00,,---,0.00,VWS V14.01,2013-02-21 23:35:00,
2013-02-21 18:40:00,34.9,10.0,30.03,NNW,333,3.8,14.4,35,0.00,,---,0.00,VWS V14.01,2013-02-21 23:40:00,
2013-02-21 18:45:00,34.9,10.0,30.06,WNW,284,7.8,16.3,35,0.00,,---,0.00,VWS V14.01,2013-02-21 23:45:00,
2013-02-21 18:50:00,34.9,10.0,30.06,WNW,299,11.0,12.5,35,0.00,,---,0.00,VWS V14.01,2013-02-21 23:50:00,
2013-02-21 18:55:00,34.9,10.0,30.09,NW,316,6.6,15.0,35,0.00,,---,0.00,VWS V14.01,2013-02-21 23:55:00,
2013-02-21 19:00:00,34.9,10.0,30.09,WNW,299,7.2,14.4,35,0.00,,---,0.00,VWS V14.01,2013-02-22 00:00:00,
2013-02-21 19:05:00,34.9,10.0,30.09,West,281,9.1,18.2,35,0.00,,---,0.00,VWS V14.01,2013-02-22 00:05:00,
2013-02-21 19:10:00,34.9,10.0,30.12,NNW,331,12.2,16.9,35,0.00,,---,0.00,VWS V14.01,2013-02-22 00:10:00,
2013-02-21 19:15:00,34.9,10.0,30.12,NNE,27,6.3,13.2,35,0.00,,---,0.00,VWS V14.01,2013-02-22 00:15:00,
2013-02-21 19:20:00,34.7,9.9,30.12,NW,304,11.0,12.5,35,0.00,,---,0.00,VWS V14.01,2013-02-22 00:20:00,
2013-02-21 19:25:00,34.9,10.0,30.12,NNW,339,7.2,15.7,35,0.00,,---,0.00,VWS V14.01,2013-02-22 00:25:00,
2013-02-21 19:30:00,34.9,10.0,30.12,NW,307,3.8,11.0,35,0.00,,---,0.00,VWS V14.01,2013-02-22 00:30:00,
2013-02-21 19:35:00,34.7,9.9,30.12,NNW,335,7.2,19.7,35,0.00,,---,0.00,VWS V14.01,2013-02-22 00:35:00,
2013-02-21 19:40:00,34.7,9.9,30.12,NW,318,18.2,18.5,35,0.00,,---,0.00,VWS V14.01,2013-02-22 00:40:00,
2013-02-21 19:45:00,34.5,9.7,30.12,NW,319,12.2,18.2,35,0.00,,---,0.00,VWS V14.01,2013-02-22 00:45:00,
2013-02-21 19:50:00,34.5,9.7,30.12,WNW,291,9.1,21.0,35,0.00,,---,0.00,VWS V14.01,2013-02-22 00:50:00,
2013-02-21 19:55:00,34.3,9.5,30.12,North,350,7.2,13.8,35,0.00,,---,0.00,VWS V14.01,2013-02-22 00:55:00,
2013-02-21 20:00:00,34.3,9.5,30.12,NE,41,8.5,16.9,35,0.00,,---,0.00,VWS V14.01,2013-02-22 01:00:00,
2013-02-21 20:05:00,34.2,9.4,30.12,NNW,337,14.4,17.5,35,0.00,,---,0.00,VWS V14.01,2013-02-22 01:05:00,
2013-02-21 20:10:00,34.0,9.2,30.12,WNW,295,23.5,23.5,35,0.00,,---,0.00,VWS V14.01,2013-02-22 01:10:00,
2013-02-21 20:15:00,33.8,9.1,30.12,NNW,346,9.7,25.1,35,0.00,,---,0.00,VWS V14.01,2013-02-22 01:15:00,
2013-02-21 20:20:00,33.8,9.1,30.12,North,350,7.2,16.3,35,0.00,,---,0.00,VWS V14.01,2013-02-22 01:20:00,
2013-02-21 20:25:00,33.6,9.5,30.12,NNW,333,12.2,18.5,36,0.00,,---,0.00,VWS V14.01,2013-02-22 01:25:00,
2013-02-21 20:30:00,33.6,9.5,30.12,ENE,65,12.5,18.2,36,0.00,,---,0.00,VWS V14.01,2013-02-22 01:30:00,
2013-02-21 20:35:00,33.4,10.6,30.12,North,0,18.2,21.6,38,0.00,,---,0.00,VWS V14.01,2013-02-22 01:35:00,
2013-02-21 20:40:00,33.3,10.4,30.12,NW,305,9.1,22.2,38,0.00,,---,0.00,VWS V14.01,2013-02-22 01:40:00,
2013-02-21 20:45:00,33.3,10.4,30.12,NW,314,11.6,24.7,38,0.00,,---,0.00,VWS V14.01,2013-02-22 01:45:00,
2013-02-21 20:50:00,33.1,10.2,30.12,WNW,300,16.3,23.5,38,0.00,,---,0.00,VWS V14.01,2013-02-22 01:50:00,
2013-02-21 20:55:00,33.1,10.2,30.12,North,10,7.8,21.0,38,0.00,,---,0.00,VWS V14.01,2013-02-22 01:55:00,
2013-02-21 21:00:00,32.9,10.1,30.12,WNW,299,10.3,21.6,38,0.00,,---,0.00,VWS V14.01,2013-02-22 02:00:00,
2013-02-21 21:05:00,32.7,9.9,30.12,North,0,9.1,19.7,38,0.00,,---,0.00,VWS V14.01,2013-02-22 02:05:00,
2013-02-21 21:09:00,32.7,9.9,30.12,WNW,286,10.3,19.1,38,0.00,,---,0.00,VWS V14.01,2013-02-22 02:09:00,
2013-02-21 21:14:00,32.5,9.8,30.12,NNE,28,16.9,21.0,38,0.00,,---,0.00,VWS V14.01,2013-02-22 02:14:00,
2013-02-21 21:19:00,32.4,9.6,30.12,North,4,8.5,18.2,38,0.00,,---,0.00,VWS V14.01,2013-02-22 02:19:00,
2013-02-21 21:24:00,32.2,9.4,30.12,ENE,68,16.3,21.6,38,0.00,,---,0.00,VWS V14.01,2013-02-22 02:24:00,
2013-02-21 21:29:00,32.0,9.3,30.15,NNE,16,12.2,22.2,38,0.00,,---,0.00,VWS V14.01,2013-02-22 02:29:00,
2013-02-21 21:34:00,31.6,9.0,30.15,NNE,33,9.1,18.5,38,0.00,,---,0.00,VWS V14.01,2013-02-22 02:34:00,
2013-02-21 21:39:00,31.5,8.8,30.15,NNE,29,7.2,21.0,38,0.00,,---,0.00,VWS V14.01,2013-02-22 02:39:00,
2013-02-21 21:44:00,31.3,9.2,30.15,NNW,335,6.6,19.1,39,0.00,,---,0.00,VWS V14.01,2013-02-22 02:44:00,
2013-02-21 21:49:00,31.1,9.1,30.15,North,10,7.2,13.8,39,0.00,,---,0.00,VWS V14.01,2013-02-22 02:49:00,
2013-02-21 21:54:00,31.1,9.1,30.15,NE,38,11.0,16.3,39,0.00,,---,0.00,VWS V14.01,2013-02-22 02:54:00,
2013-02-21 21:59:00,30.9,8.9,30.15,North,357,18.2,18.5,39,0.00,,---,0.00,VWS V14.01,2013-02-22 02:59:00,
2013-02-21 22:04:00,30.7,8.7,30.15,WNW,302,9.1,18.2,39,0.00,,---,0.00,VWS V14.01,2013-02-22 03:04:00,
2013-02-21 22:09:00,30.7,8.7,30.15,NNW,339,6.3,11.6,39,0.00,,---,0.00,VWS V14.01,2013-02-22 03:09:00,
2013-02-21 22:14:00,30.7,8.7,30.15,NE,34,6.3,12.2,39,0.00,,---,0.00,VWS V14.01,2013-02-22 03:14:00,
2013-02-21 22:19:00,30.6,8.6,30.15,NNW,329,9.1,16.3,39,0.00,,---,0.00,VWS V14.01,2013-02-22 03:19:00,
2013-02-21 22:24:00,30.4,8.4,30.15,NW,325,13.2,14.4,39,0.00,,---,0.00,VWS V14.01,2013-02-22 03:24:00,
2013-02-21 22:29:00,30.2,8.2,30.15,WNW,299,13.8,15.7,39,0.00,,---,0.00,VWS V14.01,2013-02-22 03:29:00,
2013-02-21 22:34:00,30.2,8.2,30.15,NNE,12,11.6,17.5,39,0.00,,---,0.00,VWS V14.01,2013-02-22 03:34:00,
2013-02-21 22:39:00,30.0,8.6,30.15,WNW,295,9.7,12.2,40,0.00,,---,0.00,VWS V14.01,2013-02-22 03:39:00,
2013-02-21 22:44:00,29.8,7.9,30.18,NW,309,7.8,22.2,39,0.00,,---,0.00,VWS V14.01,2013-02-22 03:44:00,
2013-02-21 22:49:00,29.7,8.3,30.18,North,8,14.4,14.4,40,0.00,,---,0.00,VWS V14.01,2013-02-22 03:49:00,
2013-02-21 22:54:00,29.7,8.3,30.18,NNW,342,9.1,14.4,40,0.00,,---,0.00,VWS V14.01,2013-02-22 03:54:00,
2013-02-21 22:59:00,29.5,8.1,30.18,NE,34,7.2,13.8,40,0.00,,---,0.00,VWS V14.01,2013-02-22 03:59:00,
2013-02-21 23:09:00,29.3,8.0,30.18,NNE,13,12.2,13.2,40,0.00,,---,0.00,VWS V14.01,2013-02-22 04:09:00,
2013-02-21 23:14:00,29.3,8.0,30.18,North,350,6.3,14.4,40,0.00,,---,0.00,VWS V14.01,2013-02-22 04:14:00,
2013-02-21 23:19:00,29.3,8.0,30.18,North,357,12.2,14.4,40,0.00,,---,0.00,VWS V14.01,2013-02-22 04:19:00,
2013-02-21 23:24:00,29.1,7.8,30.18,WNW,290,4.4,12.2,40,0.00,,---,0.00,VWS V14.01,2013-02-22 04:24:00,
2013-02-21 23:29:00,29.1,7.8,30.18,NNW,336,10.3,15.0,40,0.00,,---,0.00,VWS V14.01,2013-02-22 04:29:00,
2013-02-21 23:34:00,28.8,7.5,30.18,North,11,10.3,15.7,40,0.00,,---,0.00,VWS V14.01,2013-02-22 04:34:00,
2013-02-21 23:39:00,28.6,7.3,30.18,NW,305,9.1,12.5,40,0.00,,---,0.00,VWS V14.01,2013-02-22 04:39:00,
2013-02-21 23:44:00,28.6,7.3,30.18,NNW,348,6.3,12.5,40,0.00,,---,0.00,VWS V14.01,2013-02-22 04:44:00,
2013-02-21 23:49:00,28.6,7.3,30.18,NNW,344,6.6,13.2,40,0.00,,---,0.00,VWS V14.01,2013-02-22 04:49:00,
2013-02-21 23:54:00,28.4,7.7,30.18,NNW,330,5.6,12.5,41,0.00,,---,0.00,VWS V14.01,2013-02-22 04:54:00,
2013-02-21 23:59:00,28.4,7.7,30.18,North,350,12.2,13.8,41,0.00,,---,0.00,VWS V14.01,2013-02-22 04:59:00,